Location: Bonny Doon Airfield
(37.0704°N, 122.1252°W)
Time: 11:44:03
(UTC-07:00)

Tiangong 2 - Pass Details

Date: 09 October 2017
Orbit: 388 x 391 km, 42.8° (Epoch: 23 October)

Event Time Altitude Azimuth Distance (km) Brightness Sun altitude
Exits shadow 05:00:45 20° 99° (E) 975 3.8 -26.7°
Drops below altitude 10° 05:02:04 10° 83° (E) 1,418 4.9 -26.4°
Sets 05:04:17 0° 72° (ENE) 2,277 6.3 -26.0°
